星链-30466 (STARLINK-30466 )

导读 | 星芒AI

STARLINK-30466 是 SpaceX 星链(Starlink)卫星互联网项目中的第 30466 颗卫星。该卫星属于星链计划的第三代(Gen3)卫星群,旨在提供全球范围内的高速互联网服务。它采用先进通信技术,支持低延迟、高带宽的数据传输,主要服务于偏远地区及传统网络难以覆盖的区域。该卫星由 SpaceX 设计、制造并发射,于近期通过猎鹰九号火箭送入近地轨道,进一步扩展星链的全球网络覆盖能力。

基本信息
目录编号:
57904
目录名称:
STARLINK-30466
国际标识:
2023-146P
轨道中心:
EARTH
卫星名称:
星链-30466
卫星全名:
星链-30466 (STARLINK-30466 )
卫星状态:
在轨 (已飞行771 天)
发射日期:
2023-09-20 UTC
国别 :
美国 (US)
星等 :
--
轨道信息
数据来源 国际轨道数据
星历时间: 2025-10-30T15:06:19+0800
15小时前
查看轨道信息
半长轴: 6937.222km
偏心率: 0.0001209
轨道倾角: 43.007°
近地点辐角 268.355°
升交点赤经 301.701°
平近点角 91.715°
近地点: 558.248km
远地点: 559.926km
周期: 95.838分钟
每日圈数: 15.025344
详细信息
固有亮度:
5
最大亮度:
0.3
卫星平台:
Starlink v2.0 mini
覆盖范围:
全球
运营商:
太空探索技术公司
运营商所在国:
美国
制造商(研发单位):
太空探索技术公司
制造商所在国:
美国
使用方式:
暂无
卫星简介
星链(Starlink)计划是由太空探索技术公司(SpaceX)提出的一个巨型低轨卫星互联网星座项目,计划在2019年至2024年间在太空搭建由约1.2万颗卫星组成的“星链”网络,其中1584颗将部署在地球上空550千米处的近地轨道,并从2020年开始工作。该卫星仍在工作。
2D轨道图
3D轨道图
轨道高度分析图
轨道倾角分析图
轨道综合分析图
查看轨道综合分析图